UAL5195 KEWR-KIAD

Flight info

Callsign UAL5195
Flight time 0h 59m
Altitude 32000
Route PARKE HYPER9
Aircraft B738/M-SDE2E3FGHIRWXY/LB1

Departure

Time 2026-05-01 14:03
Airport Newark Liberty International Airport (KEWR)

Arrival

Time 2026-05-01 15:02
Airport Washington Dulles International Airport (KIAD)
Time Latitude Longitude Altitude Speed Heading
2026-05-01 13:39 40.68301 -74.18462 21 ft 0 kts
2026-05-01 13:50 40.68281 -74.18465 21 ft 4 kts 12°
2026-05-01 13:50 40.68258 -74.18479 22 ft 4 kts 53°
2026-05-01 13:50 40.68251 -74.18497 24 ft 4 kts 86°
2026-05-01 13:51 40.68250 -74.18507 24 ft 1 kts 95°
2026-05-01 13:53 40.68250 -74.18506 21 ft 1 kts 95°
2026-05-01 13:53 40.68249 -74.18485 21 ft 3 kts 94°
2026-05-01 13:54 40.68247 -74.18442 21 ft 10 kts 94°
2026-05-01 13:54 40.68239 -74.18329 21 ft 14 kts 96°
2026-05-01 13:54 40.68234 -74.18248 21 ft 0 kts 94°
2026-05-01 13:54 40.68234 -74.18243 21 ft 2 kts 94°
2026-05-01 13:55 40.68233 -74.18232 21 ft 3 kts 94°
2026-05-01 13:55 40.68232 -74.18202 21 ft 1 kts 90°
2026-05-01 13:55 40.68235 -74.18166 21 ft 7 kts 79°
2026-05-01 13:55 40.68234 -74.18045 21 ft 12 kts 95°
2026-05-01 13:56 40.68223 -74.17941 21 ft 10 kts 111°
2026-05-01 13:56 40.68201 -74.17891 21 ft 9 kts 121°
2026-05-01 13:56 40.68173 -74.17826 18 ft 8 kts 116°
2026-05-01 13:56 40.68149 -74.17747 21 ft 10 kts 90°
2026-05-01 13:57 40.68196 -74.17687 21 ft 10 kts 26°
2026-05-01 13:57 40.68280 -74.17634 21 ft 18 kts 25°
2026-05-01 13:57 40.68402 -74.17557 23 ft 21 kts 26°
2026-05-01 13:57 40.68552 -74.17462 22 ft 24 kts 26°
2026-05-01 13:58 40.68699 -74.17368 22 ft 23 kts 26°
2026-05-01 13:58 40.68840 -74.17279 22 ft 22 kts 26°
2026-05-01 13:58 40.68976 -74.17192 22 ft 22 kts 26°
2026-05-01 13:58 40.69110 -74.17107 21 ft 21 kts 25°
2026-05-01 13:59 40.69231 -74.17030 21 ft 20 kts 26°
2026-05-01 13:59 40.69353 -74.16952 21 ft 18 kts 26°
2026-05-01 13:59 40.69467 -74.16881 21 ft 18 kts 25°
2026-05-01 13:59 40.69576 -74.16810 21 ft 17 kts 26°
2026-05-01 14:00 40.69681 -74.16743 22 ft 17 kts 25°
2026-05-01 14:00 40.69779 -74.16682 20 ft 12 kts 25°
2026-05-01 14:00 40.69856 -74.16632 21 ft 12 kts 26°
2026-05-01 14:00 40.69927 -74.16587 20 ft 11 kts 25°
2026-05-01 14:01 40.69988 -74.16548 20 ft 9 kts 26°
2026-05-01 14:01 40.70002 -74.16540 20 ft 1 kts 26°
2026-05-01 14:01 40.70045 -74.16511 20 ft 9 kts 33°
2026-05-01 14:01 40.70063 -74.16439 19 ft 9 kts 93°
2026-05-01 14:02 40.70043 -74.16369 18 ft 9 kts 149°
2026-05-01 14:02 40.69987 -74.16387 18 ft 9 kts 205°
2026-05-01 14:02 40.69720 -74.16557 20 ft 88 kts 205°
2026-05-01 14:02 40.68956 -74.17119 102 ft 156 kts 210°
2026-05-01 14:03 40.67893 -74.17852 736 ft 186 kts 207°
2026-05-01 14:03 40.66637 -74.18748 1327 ft 223 kts 213°
2026-05-01 14:03 40.65362 -74.20095 1966 ft 247 kts 233°
2026-05-01 14:03 40.64568 -74.22171 2595 ft 274 kts 261°
2026-05-01 14:04 40.64626 -74.24769 3429 ft 297 kts 281°
2026-05-01 14:04 40.64997 -74.27497 4684 ft 303 kts 283°
2026-05-01 14:04 40.65423 -74.30081 6849 ft 268 kts 285°
2026-05-01 14:04 40.65837 -74.32404 8675 ft 256 kts 283°
2026-05-01 14:05 40.66083 -74.34600 10475 ft 226 kts 285°
2026-05-01 14:05 40.66388 -74.36478 11905 ft 195 kts 283°
2026-05-01 14:05 40.66638 -74.38158 12854 ft 186 kts 281°
2026-05-01 14:05 40.66873 -74.39969 12531 ft 230 kts 279°
2026-05-01 14:06 40.67104 -74.42265 12312 ft 269 kts 277°
2026-05-01 14:06 40.67295 -74.44815 12507 ft 291 kts 276°
2026-05-01 14:06 40.67448 -74.47569 12675 ft 312 kts 275°
2026-05-01 14:06 40.67569 -74.50515 12878 ft 331 kts 274°
2026-05-01 14:07 40.67660 -74.53587 13422 ft 338 kts 272°
2026-05-01 14:07 40.67729 -74.56687 14147 ft 339 kts 272°
2026-05-01 14:07 40.67784 -74.59796 14920 ft 339 kts 271°
2026-05-01 14:08 40.67871 -74.65991 16352 ft 342 kts 271°
2026-05-01 14:08 40.67910 -74.69133 17084 ft 344 kts 271°
2026-05-01 14:08 40.67947 -74.72287 17786 ft 345 kts 271°
2026-05-01 14:08 40.67983 -74.75465 18446 ft 348 kts 271°
2026-05-01 14:09 40.68019 -74.78652 19035 ft 350 kts 270°
2026-05-01 14:09 40.68053 -74.81862 19593 ft 352 kts 270°
2026-05-01 14:09 40.68087 -74.85096 20145 ft 355 kts 270°
2026-05-01 14:09 40.68121 -74.88402 20300 ft 367 kts 270°
2026-05-01 14:10 40.68154 -74.91800 20638 ft 374 kts 270°
2026-05-01 14:10 40.68187 -74.95167 20981 ft 372 kts 270°
2026-05-01 14:10 40.68220 -74.98586 20986 ft 375 kts 270°
2026-05-01 14:10 40.68252 -75.02021 20996 ft 375 kts 270°
2026-05-01 14:11 40.68282 -75.05454 21002 ft 374 kts 270°
2026-05-01 14:11 40.68141 -75.11434 21012 ft 372 kts 264°
2026-05-01 14:11 40.67857 -75.14820 21010 ft 372 kts 263°
2026-05-01 14:12 40.67549 -75.18210 21010 ft 373 kts 263°
2026-05-01 14:12 40.67253 -75.21600 21021 ft 373 kts 264°
2026-05-01 14:12 40.66978 -75.24953 21007 ft 374 kts 264°
2026-05-01 14:12 40.66711 -75.28360 21015 ft 374 kts 264°
2026-05-01 14:13 40.66447 -75.31765 21027 ft 374 kts 264°
2026-05-01 14:13 40.66182 -75.35176 21022 ft 375 kts 264°
2026-05-01 14:13 40.65628 -75.38531 21012 ft 377 kts 251°
2026-05-01 14:13 40.64474 -75.41645 21027 ft 380 kts 244°
2026-05-01 14:14 40.63160 -75.44668 21007 ft 381 kts 243°
2026-05-01 14:14 40.61828 -75.47679 21010 ft 380 kts 243°
2026-05-01 14:14 40.60519 -75.50642 21029 ft 380 kts 243°
2026-05-01 14:14 40.59200 -75.53649 21033 ft 379 kts 243°
2026-05-01 14:15 40.57900 -75.56630 21032 ft 379 kts 244°
2026-05-01 14:15 40.56595 -75.59636 21033 ft 378 kts 244°
2026-05-01 14:15 40.55292 -75.62644 21040 ft 378 kts 244°
2026-05-01 14:15 40.53992 -75.65646 21032 ft 378 kts 244°
2026-05-01 14:16 40.52690 -75.68650 21031 ft 378 kts 244°
2026-05-01 14:16 40.51386 -75.71655 21034 ft 378 kts 244°
2026-05-01 14:16 40.50102 -75.74615 21032 ft 378 kts 244°
2026-05-01 14:16 40.48798 -75.77614 21027 ft 378 kts 244°
2026-05-01 14:17 40.47491 -75.80621 21037 ft 379 kts 244°
2026-05-01 14:17 40.46183 -75.83623 21008 ft 379 kts 244°
2026-05-01 14:17 40.44875 -75.86623 21024 ft 379 kts 244°
2026-05-01 14:17 40.43430 -75.89528 21012 ft 384 kts 233°
2026-05-01 14:18 40.42464 -75.90839 21042 ft 387 kts 229°
2026-05-01 14:18 40.41444 -75.92097 21039 ft 388 kts 228°
2026-05-01 14:18 40.40114 -75.93738 21026 ft 388 kts 229°
2026-05-01 14:19 40.37520 -75.96964 21024 ft 388 kts 229°
2026-05-01 14:19 40.35571 -75.99409 21028 ft 388 kts 229°
2026-05-01 14:19 40.33628 -76.01858 21030 ft 387 kts 229°
2026-05-01 14:19 40.31689 -76.04309 21024 ft 387 kts 229°
2026-05-01 14:20 40.29750 -76.06760 21019 ft 387 kts 229°
2026-05-01 14:20 40.25910 -76.11612 21022 ft 386 kts 229°
2026-05-01 14:20 40.23979 -76.14049 21020 ft 386 kts 229°
2026-05-01 14:21 40.22043 -76.16491 21034 ft 386 kts 229°
2026-05-01 14:21 40.20110 -76.18927 21031 ft 386 kts 229°
2026-05-01 14:21 40.18171 -76.21369 21031 ft 387 kts 229°
2026-05-01 14:22 40.14293 -76.26245 21028 ft 387 kts 229°
2026-05-01 14:22 40.12389 -76.28659 21026 ft 386 kts 231°
2026-05-01 14:22 40.10830 -76.31444 21041 ft 378 kts 244°
2026-05-01 14:22 40.09534 -76.34431 21005 ft 379 kts 243°
2026-05-01 14:23 40.08194 -76.37392 21021 ft 379 kts 243°
2026-05-01 14:23 40.06834 -76.40345 21028 ft 380 kts 242°
2026-05-01 14:23 40.05465 -76.43300 21034 ft 381 kts 242°
2026-05-01 14:23 40.04095 -76.46256 21030 ft 381 kts 242°
2026-05-01 14:24 40.02749 -76.49157 21015 ft 364 kts 242°
2026-05-01 14:24 40.01465 -76.51920 20999 ft 349 kts 243°
2026-05-01 14:24 40.00237 -76.54569 20683 ft 341 kts 243°
2026-05-01 14:24 39.99017 -76.57206 20255 ft 339 kts 243°
2026-05-01 14:25 39.97807 -76.59814 19827 ft 335 kts 243°
2026-05-01 14:25 39.96607 -76.62398 19380 ft 332 kts 243°
2026-05-01 14:25 39.95414 -76.64962 18919 ft 330 kts 243°
2026-05-01 14:25 39.94228 -76.67509 18469 ft 328 kts 243°
2026-05-01 14:26 39.93047 -76.70040 17985 ft 326 kts 243°
2026-05-01 14:26 39.90702 -76.75067 17027 ft 323 kts 243°
2026-05-01 14:26 39.89557 -76.77520 16591 ft 320 kts 242°
2026-05-01 14:27 39.88403 -76.79991 16154 ft 319 kts 242°
2026-05-01 14:27 39.87253 -76.82450 15717 ft 317 kts 242°
2026-05-01 14:27 39.86106 -76.84903 15252 ft 317 kts 242°
2026-05-01 14:28 39.83796 -76.89834 14390 ft 321 kts 242°
2026-05-01 14:28 39.82623 -76.92335 13977 ft 328 kts 241°
2026-05-01 14:28 39.81425 -76.94890 13612 ft 333 kts 241°
2026-05-01 14:28 39.80213 -76.97469 13237 ft 334 kts 241°
2026-05-01 14:29 39.79022 -76.99998 12897 ft 331 kts 241°
2026-05-01 14:29 39.77825 -77.02540 12550 ft 328 kts 241°
2026-05-01 14:30 39.74287 -77.10041 11551 ft 318 kts 241°
2026-05-01 14:30 39.73139 -77.12472 11242 ft 313 kts 241°
2026-05-01 14:30 39.72010 -77.14863 10931 ft 308 kts 241°
2026-05-01 14:31 39.69793 -77.19547 10329 ft 300 kts 240°
2026-05-01 14:31 39.68613 -77.21720 10016 ft 300 kts 227°
2026-05-01 14:31 39.66938 -77.23290 9964 ft 294 kts 210°
2026-05-01 14:31 39.65093 -77.24309 9954 ft 283 kts 205°
2026-05-01 14:32 39.63290 -77.25197 9930 ft 271 kts 205°
2026-05-01 14:32 39.61553 -77.26043 9836 ft 263 kts 205°
2026-05-01 14:32 39.59857 -77.26879 9596 ft 261 kts 206°
2026-05-01 14:32 39.58162 -77.27725 9263 ft 261 kts 206°
2026-05-01 14:33 39.56465 -77.28575 8964 ft 261 kts 205°
2026-05-01 14:33 39.54797 -77.29415 8679 ft 261 kts 205°
2026-05-01 14:33 39.53101 -77.30270 8375 ft 261 kts 205°
2026-05-01 14:33 39.51410 -77.31124 8159 ft 261 kts 205°
2026-05-01 14:34 39.49718 -77.31977 7977 ft 262 kts 205°
2026-05-01 14:34 39.48016 -77.32840 7764 ft 263 kts 205°
2026-05-01 14:34 39.46316 -77.33698 7595 ft 262 kts 205°
2026-05-01 14:34 39.44613 -77.34559 7407 ft 263 kts 205°
2026-05-01 14:35 39.42904 -77.35421 7206 ft 264 kts 205°
2026-05-01 14:35 39.41208 -77.36240 7018 ft 265 kts 198°
2026-05-01 14:35 39.39349 -77.36464 6764 ft 272 kts 181°
2026-05-01 14:35 39.37455 -77.36364 6522 ft 272 kts 181°
2026-05-01 14:36 39.35565 -77.36301 6215 ft 271 kts 181°
2026-05-01 14:36 39.33683 -77.36221 5949 ft 270 kts 180°
2026-05-01 14:36 39.31811 -77.36162 5695 ft 268 kts 181°
2026-05-01 14:36 39.29944 -77.36142 5450 ft 268 kts 181°
2026-05-01 14:37 39.28085 -77.36102 5166 ft 266 kts 182°
2026-05-01 14:37 39.26240 -77.36097 4957 ft 264 kts 179°
2026-05-01 14:37 39.24443 -77.35994 4770 ft 259 kts 179°
2026-05-01 14:37 39.22652 -77.35926 4585 ft 256 kts 180°
2026-05-01 14:38 39.20869 -77.35876 4434 ft 257 kts 180°
2026-05-01 14:38 39.19066 -77.35816 4245 ft 261 kts 180°
2026-05-01 14:38 39.17252 -77.35770 4054 ft 260 kts 179°
2026-05-01 14:38 39.15450 -77.35741 3976 ft 256 kts 180°
2026-05-01 14:39 39.13698 -77.35749 3962 ft 247 kts 180°
2026-05-01 14:39 39.11977 -77.35683 3936 ft 250 kts 181°
2026-05-01 14:39 39.10243 -77.35703 3935 ft 255 kts 182°
2026-05-01 14:39 39.08449 -77.35722 3897 ft 258 kts 179°
2026-05-01 14:40 39.06651 -77.35670 3805 ft 258 kts 180°
2026-05-01 14:40 39.04866 -77.35694 3779 ft 256 kts 181°
2026-05-01 14:40 39.03091 -77.35702 3771 ft 255 kts 180°
2026-05-01 14:40 39.01311 -77.35708 3720 ft 254 kts 180°
2026-05-01 14:41 38.99548 -77.35721 3678 ft 253 kts 180°
2026-05-01 14:41 38.97790 -77.35717 3650 ft 252 kts 180°
2026-05-01 14:41 38.96042 -77.35714 3643 ft 251 kts 180°
2026-05-01 14:41 38.94280 -77.35708 3616 ft 254 kts 180°
2026-05-01 14:42 38.92538 -77.35701 3568 ft 254 kts 180°
2026-05-01 14:42 38.90776 -77.35695 3538 ft 253 kts 180°
2026-05-01 14:42 38.89025 -77.35722 3503 ft 251 kts 181°
2026-05-01 14:42 38.87279 -77.35763 3475 ft 250 kts 181°
2026-05-01 14:43 38.85533 -77.35804 3465 ft 252 kts 181°
2026-05-01 14:43 38.83778 -77.35844 3415 ft 252 kts 181°
2026-05-01 14:43 38.82028 -77.35883 3392 ft 251 kts 181°
2026-05-01 14:43 38.80285 -77.35921 3373 ft 250 kts 181°
2026-05-01 14:44 38.78547 -77.35959 3348 ft 249 kts 181°
2026-05-01 14:44 38.75106 -77.36032 3291 ft 249 kts 181°
2026-05-01 14:44 38.73370 -77.36069 3260 ft 250 kts 181°
2026-05-01 14:45 38.71632 -77.36105 3228 ft 249 kts 181°
2026-05-01 14:45 38.68156 -77.36179 3071 ft 252 kts 181°
2026-05-01 14:45 38.66409 -77.36205 3015 ft 250 kts 180°
2026-05-01 14:46 38.64683 -77.36225 3011 ft 247 kts 180°
2026-05-01 14:46 38.61283 -77.36256 3023 ft 247 kts 180°
2026-05-01 14:46 38.59547 -77.36272 3030 ft 251 kts 180°
2026-05-01 14:47 38.57806 -77.36288 3020 ft 250 kts 180°
2026-05-01 14:47 38.56066 -77.36305 3013 ft 249 kts 180°
2026-05-01 14:47 38.54333 -77.36322 3012 ft 249 kts 180°
2026-05-01 14:48 38.50884 -77.36357 3019 ft 247 kts 180°
2026-05-01 14:48 38.49163 -77.36375 3018 ft 247 kts 180°
2026-05-01 14:48 38.45739 -77.36405 3023 ft 248 kts 180°
2026-05-01 14:49 38.42280 -77.36428 3007 ft 249 kts 179°
2026-05-01 14:49 38.38924 -77.37109 2964 ft 248 kts 217°
2026-05-01 14:50 38.37659 -77.39892 2902 ft 229 kts 265°
2026-05-01 14:50 38.37646 -77.40646 2893 ft 224 kts 276°
2026-05-01 14:51 38.38060 -77.42419 2895 ft 210 kts 301°
2026-05-01 14:51 38.40293 -77.44562 2914 ft 205 kts 347°
2026-05-01 14:52 38.43145 -77.44801 2914 ft 207 kts 359°
2026-05-01 14:52 38.44585 -77.44851 2919 ft 207 kts 359°
2026-05-01 14:52 38.47483 -77.44951 2913 ft 209 kts 358°
2026-05-01 14:53 38.48940 -77.45002 2909 ft 209 kts 358°
2026-05-01 14:53 38.50394 -77.45053 2907 ft 209 kts 358°
2026-05-01 14:53 38.51832 -77.45105 2916 ft 209 kts 358°
2026-05-01 14:53 38.53283 -77.45157 2915 ft 209 kts 358°
2026-05-01 14:54 38.54733 -77.45210 2914 ft 208 kts 358°
2026-05-01 14:54 38.56177 -77.45263 2911 ft 207 kts 358°
2026-05-01 14:54 38.57617 -77.45316 2912 ft 207 kts 358°
2026-05-01 14:54 38.59052 -77.45368 2912 ft 206 kts 358°
2026-05-01 14:55 38.60482 -77.45421 2913 ft 204 kts 358°
2026-05-01 14:55 38.61857 -77.45472 2916 ft 191 kts 358°
2026-05-01 14:55 38.63150 -77.45520 2931 ft 187 kts 358°
2026-05-01 14:55 38.64447 -77.45568 2934 ft 186 kts 358°
2026-05-01 14:56 38.65736 -77.45615 2927 ft 185 kts 358°
2026-05-01 14:56 38.66278 -77.45635 2924 ft 186 kts 358°
2026-05-01 14:56 38.67401 -77.45677 2909 ft 186 kts 358°
2026-05-01 14:56 38.68696 -77.45725 2908 ft 186 kts 358°
2026-05-01 14:57 38.69992 -77.45773 2905 ft 187 kts 358°
2026-05-01 14:57 38.72574 -77.45869 2925 ft 186 kts 358°
2026-05-01 14:57 38.73869 -77.45917 2916 ft 186 kts 358°
2026-05-01 14:58 38.75165 -77.45965 2913 ft 187 kts 358°
2026-05-01 14:58 38.76465 -77.46015 2913 ft 187 kts 357°
2026-05-01 14:58 38.77765 -77.46098 2912 ft 187 kts 357°
2026-05-01 14:58 38.79066 -77.46142 2922 ft 188 kts 359°
2026-05-01 14:59 38.80386 -77.46160 2908 ft 190 kts 360°
2026-05-01 14:59 38.81724 -77.46154 2754 ft 196 kts
2026-05-01 14:59 38.83092 -77.46136 2465 ft 195 kts
2026-05-01 14:59 38.84416 -77.46118 2186 ft 191 kts
2026-05-01 15:00 38.87014 -77.46077 1701 ft 183 kts
2026-05-01 15:00 38.88243 -77.46060 1443 ft 170 kts
2026-05-01 15:00 38.89387 -77.46044 1206 ft 161 kts
2026-05-01 15:01 38.90504 -77.46027 997 ft 159 kts 360°
2026-05-01 15:01 38.91601 -77.46011 778 ft 157 kts 359°
2026-05-01 15:01 38.92682 -77.45989 575 ft 155 kts 360°
2026-05-01 15:01 38.93770 -77.45973 390 ft 157 kts 357°
2026-05-01 15:02 38.94824 -77.45968 291 ft 144 kts
2026-05-01 15:02 38.95432 -77.45959 292 ft 114 kts
2026-05-01 15:02 38.95943 -77.45919 287 ft 12 kts 30°
2026-05-01 15:02 38.96002 -77.45874 291 ft 0 kts 31°